Home   Weather   Santorini   Past weeks
Flag for Greece

Past Weather in Santorini, Greece — Yesterday and Last 2 Weeks

Now
64 °F

Sunny.


Feels Like: 64 °F
Forecast: 63 / 59 °F
Wind: 18 mph from West

Location: Santorini Island

Current Time: Mar 26, 2019 at 5:07:29 pm

Latest Report: Mar 26, 2019 at 4:20 pm


Visibility: 10 mi

Pressure: 29.83 "Hg

Humidity: 60%

Dew Point: 50 °F

Location of SantoriniLocation

Past Weather in Santorini — Graph

°F

Santorini Temperature Yesterday

Maximum temperature yesterday: 63 °F (at 10:50 am)
Minimum temperature yesterday: 52 °F (at 11:50 pm)
Average temperature yesterday: 58 °F

High & Low Weather Summary for the Past Weeks

 TemperatureHumidityPressure
High66 °F (Mar 17, 11:50 am)94% (Mar 21, 1:50 am)30.18 "Hg (Mar 21, 1:50 am)
Low50 °F (Mar 12, 11:50 pm)27% (Mar 24, 11:20 am)29.59 "Hg (Mar 13, 3:20 am)
Average58 °F67%29.96 "Hg
* Reported Mar 11 3:20 pm — Mar 26 3:50 pm, Santorini. Weather by CustomWeather, © 2019

Note: Actual official high and low records may vary slightly from our data, if they occured in-between our weather recording intervals... More about our weather records

Advertising

Santorini Weather History for the Previous 24 Hours

Scroll right to see more
 ConditionsComfort  
Time TempWeatherWind HumidityBarometerVisibility
3:50 pm
Tue, Mar 26
64 °FPassing clouds.18 mph68%29.83 "HgN/A
3:20 pm64 °FScattered clouds.18 mph73%29.80 "HgN/A
2:20 pm64 °FScattered clouds.21 mph64%29.80 "HgN/A
1:50 pm66 °FScattered clouds.17 mph64%29.80 "HgN/A
1:20 pm64 °FScattered clouds.21 mph68%29.80 "HgN/A
12:50 pm64 °FScattered clouds.16 mph68%29.80 "HgN/A
12:20 pm64 °FScattered clouds.17 mph68%29.80 "HgN/A
11:50 am64 °FScattered clouds.15 mph68%29.83 "HgN/A
11:20 am64 °FScattered clouds.14 mph68%29.83 "HgN/A
10:50 am63 °FScattered clouds.13 mph73%29.83 "HgN/A
10:20 am64 °FPassing clouds.13 mph68%29.83 "HgN/A
9:50 am63 °FPassing clouds.20 mph73%29.83 "HgN/A
9:20 am63 °FPassing clouds.16 mph77%29.83 "HgN/A
8:50 am63 °FPassing clouds.12 mph77%29.83 "HgN/A
8:20 am61 °FPassing clouds.5 mph77%29.80 "HgN/A
7:50 am61 °FPassing clouds.2 mph77%29.80 "HgN/A
7:20 am59 °FPassing clouds.5 mph77%29.80 "HgN/A
6:50 am59 °FPassing clouds.5 mph77%29.80 "HgN/A
6:20 am55 °FSunny.5 mph77%29.80 "Hg10 mi
5:50 am54 °FClear.2 mph77%29.80 "Hg10 mi
5:20 am54 °FLight rain. Overcast.1 mph77%29.80 "HgN/A
4:50 am54 °FLight rain. Overcast.1 mph72%29.80 "HgN/A
4:20 am57 °FLight rain. Overcast.6 mph67%29.80 "HgN/A
3:50 am54 °FLight rain. Overcast.1 mph77%29.80 "HgN/A
3:20 am55 °FLight rain. Overcast.2 mph72%29.80 "HgN/A
2:50 am54 °FLight rain. Overcast.2 mph72%29.80 "HgN/A
2:20 am57 °FLight rain. Overcast.6 mph67%29.80 "HgN/A
1:50 am55 °FLight rain. Overcast.8 mph72%29.80 "HgN/A
1:20 am54 °FLight rain. Overcast.7 mph77%29.83 "HgN/A
12:50 am54 °FLight rain. Overcast.8 mph77%29.83 "HgN/A
12:20 am52 °FLight rain. Overcast.5 mph72%29.83 "HgN/A
11:50 pm
Mon, Mar 25
52 °FLight rain. Overcast.5 mph72%29.83 "HgN/A
11:20 pm54 °FLight rain. Overcast.8 mph67%29.83 "HgN/A
10:50 pm54 °FLight rain. Overcast.8 mph67%29.83 "HgN/A
10:20 pm54 °FClear.7 mph67%29.83 "Hg10 mi
9:50 pm55 °FClear.7 mph59%29.83 "Hg10 mi
9:20 pm55 °FClear.8 mph59%29.83 "Hg10 mi
8:50 pm55 °FClear.8 mph47%29.83 "Hg10 mi
8:20 pm57 °FClear.7 mph44%29.83 "Hg10 mi
7:50 pm57 °FClear.13 mph44%29.83 "Hg10 mi
7:20 pm57 °FClear.9 mph51%29.83 "Hg10 mi
6:50 pm57 °FClear.14 mph59%29.83 "Hg10 mi
6:20 pm59 °FSunny.14 mph48%29.80 "Hg10 mi
5:50 pm61 °FSunny.16 mph52%29.80 "Hg10 mi
5:20 pm61 °FSunny.21 mph42%29.80 "Hg10 mi
Weather by CustomWeather, © 2019

See weather overview